LASARSAT

Last updated on Tue Jul 01 2025 00:03:45 GMT+0000 (Coordinated Universal Time)

1 62391U 24247Q 25180.99902890 .00009189 00000+0 35720-3 0 9998 2 62391 44.9817 48.6854 0008198 174.9163 185.1804 15.26380343 29180
UTC large
Height (km)
Speed (km/s)
/
Latitude / Longitude
Inclination (degrees)
Orbital Period (minutes)
Azimuth
Elevation
Range (km)
Doppler Factor

Next 0 passes for location: London (51.5072 / 0.1276)

Sorry there are no passes over London.